Birjand, Iran

4:03 PM +0430 on April 19, 2019 (GMT +0430)
Birjand

Weather History for OIMB - April, 2019

Change the Weather History Date:

Friday, April 19, 2019

  Actual Average Record
Temperature  
Mean Temperature 71 °F -  
Max Temperature 82 °F - - ()
Min Temperature 60 °F - - ()
Cooling Degree Days 6    
Growing Degree Days 21 (Base 50)    
Moisture  
Dew Point 31 °F    
Average Humidity 22    
Maximum Humidity 37    
Minimum Humidity 7    
Precipitation  
Precipitation 0.00 in - - ()
Sea Level Pressure  
Sea Level Pressure 29.93 in    
Wind  
Wind Speed 10 mph ()    
Max Wind Speed 21 mph    
Max Gust Speed -    
Visibility 6.1 miles    
Events      
T = Trace of Precipitation, MM = Missing Value Source: Averaged Metar Reports

Daily Weather History Graph

Daily Weather History Graph

Search for Another Location

Airport or City:

Astronomy

Apr. 19, 2019 Rise Set
Actual Time 5:59 AM +0430 7:05 PM +0430
Civil Twilight 5:33 AM +0430 7:31 PM +0430
Nautical Twilight 5:03 AM +0430 8:01 PM +0430
Astronomical Twilight 4:32 AM +0430 8:33 PM +0430
Moon 7:06 PM +0430 6:07 AM +0430
Length of Visible Light 13h 57m
Length of Day
13h 06m
Full, 100% of the Moon is Illuminated
Today
Full
Apr 19
Full
Apr 27
Last Quarter
May 5
New
May 12
First Quarter

Hourly Weather History & Observations

Time (+0430) Temp. Dew Point Humidity Pressure Visibility Wind Dir Wind Speed Gust Speed Precip Events Conditions
12:30 AM 75.2 °F 28.4 °F 18% 30.04 in 6.2 mi WSW 18.4 mph - N/A   Scattered Clouds
1:30 AM 71 °F 31 °F 13% 29.67 in 6 mi South 4.5 mph - -   Scattered Clouds
1:30 AM 71.6 °F 32.0 °F 23% 30.01 in 6.2 mi South 4.6 mph - N/A   Scattered Clouds
2:30 AM 66.2 °F 35.6 °F 32% 30.01 in - ESE 11.5 mph - N/A   Clear
3:30 AM 62.6 °F 33.8 °F 34% 29.98 in - East 11.5 mph - N/A   Clear
4:30 AM 62 °F 33 °F 22% 29.70 in 6 mi East 11.2 mph - -   Clear
4:30 AM 62.6 °F 33.8 °F 34% 30.01 in - East 11.5 mph - N/A   Clear
5:30 AM 62.6 °F 32.0 °F 32% 30.01 in - East 9.2 mph - N/A   Clear
6:30 AM 60.8 °F 32.0 °F 34% 30.01 in - East 9.2 mph - N/A   Clear
7:30 AM 62 °F 35 °F 25% 29.74 in 6 mi ESE 6.7 mph - -   Partly Cloudy
7:30 AM 62.6 °F 35.6 °F 37% 30.01 in - ESE 6.9 mph - N/A   Clear
8:30 AM 68.0 °F 33.8 °F 28% 30.04 in - ENE 6.9 mph - N/A   Clear
9:30 AM 75.2 °F 32.0 °F 21% 30.04 in - SE 4.6 mph - N/A   Clear
10:30 AM 77 °F 32 °F 11% 29.69 in 6 mi SW 11.2 mph - -   Scattered Clouds
10:30 AM 77.0 °F 32.0 °F 19% 30.04 in 6.2 mi SW 11.5 mph - N/A   Scattered Clouds
11:30 AM 78.8 °F 30.2 °F 17% 30.01 in 6.2 mi SW 11.5 mph - N/A   Scattered Clouds
12:30 PM 80.6 °F 17.6 °F 10% 30.01 in 6.2 mi WNW 18.4 mph - N/A   Scattered Clouds
1:30 PM 81 °F 27 °F 7% 29.64 in 6 mi West 20.1 mph - -   Partly Cloudy
1:30 PM 80.6 °F 26.6 °F 14% 29.98 in 6.2 mi West 20.7 mph - N/A   Scattered Clouds
2:30 PM 82.4 °F 26.6 °F 13% 29.95 in 6.2 mi WSW 20.7 mph - N/A   Partly Cloudy
3:30 PM 82.4 °F 24.8 °F 12% 29.95 in 6.2 mi West 18.4 mph - N/A   Partly Cloudy